Hourly Data Report for October 22, 2013

All times are specified in Local Standard Time (LST). Add 1 hour to adjust for Daylight Saving Time where and when it is observed.

GJOA HAVEN A
NUNAVUT

68°38'08.000" N
95°51'01.000" W
46.90 m
2302337
71597
YHK

Download Data

Hourly Data (October 2013)
Hourly Data Report for October 22, 2013
Temp Definition
°C
Dew Point Temp Definition
°C
Rel Hum Definition
%
Wind Dir Definition
10's deg

Wind Spd Definition
km/h
Visibility Definition
km
Stn Press Definition
kPa
Hmdx Definition


Wind Chill Definition


Weather Definition


TIME
00:00 Legend Double Dagger -4.2 -5.3 92 13 15 16.1 101.53   -10 LegendNANA
01:00 Legend Double Dagger -4.2 -5.2 93 12 17 16.1 101.51   -10 LegendNANA
02:00 Legend Double Dagger -4.1 -4.9 94 14 17 16.1 101.49   -10 LegendNANA
03:00 Legend Double Dagger -4.0 -5.1 92 14 17 16.1 101.47   -10 LegendNANA
04:00 Legend Double Dagger -3.6 -4.7 92 11 18 16.1 101.44   -9 LegendNANA
05:00 Legend Double Dagger -3.9 -5.0 92 11 21 16.1 101.41   -10 LegendNANA
06:00 Legend Double Dagger -4.3 -5.6 91 11 28 16.1 101.36   -12 LegendNANA
07:00 Legend Double Dagger -4.2 -5.8 89 11 28 16.1 101.33   -12 LegendNANA
08:00 Legend Double Dagger -3.8 -5.1 91 11 28 16.1 101.31   -11 LegendNANA
09:00 Legend Double Dagger -3.8 -5.4 89 11 24 16.1 101.28   -11 LegendNANA
10:00 Legend Double Dagger -3.7 -4.8 92 12 21 16.1 101.28   -10 LegendNANA
11:00 Legend Double Dagger -3.6 -4.6 93 11 17 16.1 101.26   -9 LegendNANA
12:00 Legend Double Dagger -3.6 -4.7 92 12 13 16.1 101.24   -8 LegendNANA
13:00 Legend Double Dagger -3.7 -4.7 93 11 9 16.1 101.22   -7 LegendNANA
14:00 Legend Double Dagger -3.7 -5.0 91 9 13 16.1 101.21   -9 LegendNANA
15:00 Legend Double Dagger -3.7 -5.0 91 11 11 16.1 101.20   -8 LegendNANA
16:00 Legend Double Dagger -3.8 -5.1 91 11 11 16.1 101.19   -8 LegendNANA
17:00 Legend Double Dagger -3.9 -5.0 92 14 8 16.1 101.19   -7 LegendNANA
18:00 Legend Double Dagger -4.0 -5.1 92 16 4 16.1 101.17   -6 LegendNANA
19:00 Legend Double Dagger -4.1 -5.4 91 16 4 16.1 101.13   -6 LegendNANA
20:00 Legend Double Dagger -3.9 -5.3 90 15 4 16.1 101.11   -6 LegendNANA
21:00 Legend Double Dagger -4.0 -5.4 90 15 5 16.1 101.12   -6 LegendNANA
22:00 Legend Double Dagger -4.1 -5.5 90 20 5 16.1 101.12   -6 LegendNANA
23:00 Legend Double Dagger -3.9 -5.3 90   0 16.1 101.10     LegendNANA

Notes on Data Quality.

Legend

  • E = Estimated
  • M = Missing
  • NA = Not Available
  • ‡ = Partner data that is not subject to review by the National Climate Archives
Date modified: